sat.trackr.live / text

‹ back to catalog

STARLINK-36205

NORAD 67098 · 2025-298Z

PAYLOAD ACTIVE UNKNOWN

§ Identity

Operator
Country
US
Launch date
2025-12-14
Launch site
AFWTR
Launch vehicle
Mass (kg)
RCS (m²)

Purposes: comms

External: N2YO · Heavens-Above · Gunter

§ Orbital elements

Epoch: 2026-05-25T03:55:17.042880Z

Period
96.11 min
Inclination
70.0010°
Eccentricity
0.0004158
Mean motion
14.98335878 rev/d
Perigee alt
569.1 km
Apogee alt
574.9 km
Semi-major
6,950.2 km
B*
1.7897e-4
RAAN
181.5915°
Arg perigee
267.3072°
Mean anomaly
92.7611°
Rev number
2,467

§ Raw data

STARLINK-362051 67098U 25298Z   26145.16339170  .00002043  00000+0  17897-3 0  99972 67098  70.0010 181.5915 0004158 267.3072  92.7611 14.98335878 24676

JSON: /api/v1/satellites/67098 · /tle

For live sub-satellite position, see the globe view (requires WebGL).

§ Visibility from observer

Set your observer location to see the next 7 days of passes ≥ 10°. The values pass through the URL so the page stays shareable.

No JS? Fill the form by hand. The geolocation button needs JavaScript.